This is the latest recevied weather packets stored in our database for station/object KD0ISH. If no packets are shown the sender has not sent any weather packets the latest 10 day(s).
| Time | Temp. | Humidity | Pressure | Rain* | Wind** | Luminosity | Snow |
|---|---|---|---|---|---|---|---|
| 1777633727 | 5.56° C | 96% | 1020.1 hPa | 0 mm | - | 0 W/m² | - |
| 1777633425 | 5.56° C | 96% | 1020 hPa | 0 mm | - | 0 W/m² | - |
| 1777633123 | 5.56° C | 96% | 1020.1 hPa | 0 mm | - | 0 W/m² | - |
| 1777632818 | 5.56° C | 96% | 1020 hPa | 0 mm | - | 0 W/m² | - |
| 1777632514 | 5.56° C | 96% | 1020 hPa | 0 mm | - | 0 W/m² | - |
| 1777632212 | 6.11° C | 96% | 1020.1 hPa | 0 mm | - | 0 W/m² | - |
| 1777631909 | 6.11° C | 96% | 1020.1 hPa | 0 mm | - | 0 W/m² | - |
| 1777631608 | 6.11° C | 96% | 1020 hPa | 0 mm | - | 0 W/m² | - |
| 1777631304 | 6.11° C | 96% | 1020 hPa | 0 mm | - | 0 W/m² | - |
| 1777631001 | 6.11° C | 95% | 1020.2 hPa | 0 mm | - | 0 W/m² | - |
| 1777630697 | 6.11° C | 95% | 1020 hPa | 0 mm | - | 0 W/m² | - |
| 1777630395 | 6.11° C | 95% | 1020.1 hPa | 0 mm | - | 0 W/m² | - |
| 1777630092 | 6.67° C | 95% | 1020.1 hPa | 0 mm | - | 0 W/m² | - |
| 1777629789 | 6.11° C | 95% | 1020.2 hPa | 0 mm | - | 0 W/m² | - |
| 1777629486 | 6.67° C | 95% | 1020.1 hPa | 0 mm | - | 0 W/m² | - |
| 1777629182 | 6.67° C | 95% | 1020.2 hPa | 0 mm | - | 0 W/m² | - |
| 1777628878 | 6.67° C | 95% | 1020 hPa | 0 mm | - | 0 W/m² | - |
| 1777628575 | 6.67° C | 95% | 1020.3 hPa | 0 mm | - | 0 W/m² | - |
| 1777628271 | 7.22° C | 94% | 1020.2 hPa | 0 mm | - | 0 W/m² | - |
| 1777627968 | 7.22° C | 94% | 1020.2 hPa | 0 mm | - | 0 W/m² | - |
| 1777627667 | 7.22° C | 94% | 1020.1 hPa | 0 mm | - | 0 W/m² | - |
| 1777627366 | 7.22° C | 94% | 1020 hPa | 0 mm | - | 0 W/m² | - |
| 1777627064 | 7.22° C | 93% | 1020.1 hPa | 0 mm | - | 0 W/m² | - |
| 1777626759 | 7.78° C | 93% | 1020 hPa | 0 mm | - | 0 W/m² | - |
| 1777626456 | 7.78° C | 92% | 1020.2 hPa | 0 mm | - | 0 W/m² | - |
* Rain latest hour (hover to see other rain measurements)
** Current wind speed in m/s (hover to see current wind gust speed)